Location: Aultman
(40.9284°N, 81.4173°W)
Time: 09:06:59
(UTC+00:00)

Cosmos 2279 Rocket - Pass Details

Date: 24 January 2021
Orbit: 963 x 979 km, 82.9° (Epoch: 02 March)

Event Time Altitude Azimuth Distance (km) Brightness Sun altitude
Rises 12:05:55 0° 196° (SSW) 3,654 7.1 -7.3°
Reaches altitude 10° 12:08:27 10° 200° (SSW) 2,713 6.3 -6.8°
Maximum altitude 12:14:35 61° 280° (W) 1,101 4.1 -5.7°
Drops below altitude 10° 12:20:48 10° 0° (N) 2,738 6.2 -4.6°
Sets 12:23:22 0° 4° (N) 3,691 6.8 -4.2°
